User: anonymous
Location: Quebec
(46.8000°N, 71.2500°W)
Time: 23:04:37
(UTC-04:00)
Language:

CZ-4B R/B - Orbit

View from above orbital plane
View from above orbital plane
View from above satellite
View from above satellite

Ground track
Ground track

The orbit data is extracted from the following two-line orbital elements,

1 29093U 06015B   14237.18247735  .00005383  00000-0  19517-3 0  3752
2 29093 097.5185 316.9378 0090166 019.6043 037.7504 15.24968538460098
Epoch (UTC): 25 August 2014 04:22:46
Eccentricity: 0.0090166
inclination: 97.5185°
perigee height: 429 km
apogee height: 553 km
right ascension of ascending node: 316.9378°
argument of perigee: 19.6043°
revolutions per day: 15.24968538
mean anomaly at epoch: 37.7504°
orbit number at epoch: 46009

The dashed part of the orbit path shows where the satellite is in the earth's shadow,  

DLR